STARLINK-35414, 65798

Orbit data source: Space-Track

STARLINK-35414, 65798 is a payload satellite owned by SpaceX/Seattle (US) in SSO that was launched on Fri, 26 Sep 2025 UTC via an FALCON 9 launch vehicle from the Air Force Western Test Range (AFWTR). Payload-class satellites include a variety of spacecraft equipped with specific instruments for various scientific and technological missions. These include communications satellites like Starlink; space stations such as the ISS; scientific satellites like the Hubble; Earth observation satellites from companies like Planet Labs, Umbra, and HawkEye 360; GPS; miniature CubeSats for education and research; and military/defense satellites.

Loading next visibility...
Identifier
65798, 2025-218H
Orbit
SSO
Country
Flag of USUS
Related business
Manufacturer
SpaceX/Seattle
Mission
Operational Commercial Communications
Bus & Motor
STARLINK V2MO, Unknown motor
Mass
575 kg wet, ~530 kg dry
Launch date (UTC)
2025-09-26 (1 month ago)
Launch vehicle
FALCON 9
Launch site
Air Force Western Test Range (AFWTR)
Object type
Payload
Rocket body
Debris
Shape & HBR
Box + 2 Pan, 17.7 m
Radar Cross Section
36.964 m²

Expand to show TLE details & history
Last TLE update: 2 days ago

TLE from 2 days ago
0 STARLINK-35414
1 65798U 25218H   25312.56596498  .00011952  00000-0  83053-3 0  9998
2 65798  97.6026 173.5537 0002463 103.2830 256.8672 15.05677779  6747
Epoch: 2025-11-08T13:34Z
TLE epoch observation values (Epoch: 2025-11-08T13:34:59.374Z)
Latitude
0.00003°
Longitude
-78.18744°
Altitude
552.879 km
Speed
7.585 km/s
True Right ascension
11h 34m 12s
True Declination
0° 00' 00"
Sunlit
Object was in daylight at epoch
Visualization orbit readout
Latitude
Unknown
Longitude
Unknown
Altitude
Unknown
Speed
Unknown
Apparent Right ascension
Unknown
Apparent Declination
Unknown
Sunlit
N/A
Visualization observer readout
Local Sidereal Time
03:56:10
Azimuth
Unknown
Elevation
Unknown
Doppler factor
Unknown
Orbital elements
Apogee altitude
548.125 km
Perigee altitude
544.714 km
Semi-major axis
6,924.556 km
Eccentricity
0.00025
Inclination
97.6026°
RAAN
173.5537°
Arg. of periapsis
103.283°
True anomaly
256.83972°
Mean anomaly
256.8672°
Eccentric anomaly
256.85346°
Mean motion
3.76665 °/min
Orbital period
95.58 mins
BSTAR
0.00083053
Loading maneuver chart data...
Computing Atmospheric mass density...
Loading historical data...
Loading historical data...
Loading historical data...
Loading historical data...
Loading historical data...
Loading historical data...
Loading historical data...

Documentation

Showing up to 5 results
|